Regional Weather Roundup
Issued by NWS Memphis, TN

Home | Current Version | Previous Version | Text Only | Print | Product List | Glossary On
Versions: 1 2 3 4 5 6 7 8 9 10 11 12 13 14 15 16 17 18 19 20 21 22 23 24 25 26 27 28 29 30 31 32 33 34 35 36 37 38 39 40 41 42 43 44 45 46 47 48 49 50
000
ASUS44 KMEG 310210
RWRMEG
MEMPHIS CWA HOURLY WEATHER ROUNDUP
NATIONAL WEATHER SERVICE MEMPHIS TN
900 PM CDT WED JUL 30 2014

...WEST TENNESSEE...

CITY           SKY/WX    TMP DP  RH WIND       PRES   REMARKS
MEMPHIS INTL   CLOUDY    77  59  53 W3        30.06S
NWS MEMPHIS      N/A     74 N/A N/A MISG        N/A
JACKSON        CLOUDY    71  65  81 CALM      30.07S
LEXINGTON      CLEAR     70  64  83 CALM      30.07S
SAVANNAH       CLOUDY    68  67  96 CALM      30.08R
DYERSBURG      CLOUDY    72  57  60 CALM      30.07F
UNION CITY     PTCLDY    72  66  83 CALM      30.06S
PARIS          MOCLDY    66  61  84 CALM      30.08S


...EASTERN ARKANSAS...

CITY           SKY/WX    TMP DP  RH WIND       PRES   REMARKS
JONESBORO      LGT RAIN  71  63  75 W5        30.06S
WEST MEMPHIS   CLOUDY    74  67  78 NW3       30.05S
BATESVILLE     CLOUDY    68  66  94 SW5       30.07S
NEWPORT        LGT RAIN  71  67  87 SW3       30.08S
WALNUT RIDGE   CLOUDY    70  63  78 SW7       30.06S
BLYTHEVILLE    CLOUDY    76  62  62 CALM      30.06S
SEARCY         LGT RAIN  68  67  96 CALM      30.08F
STUTTGART      CLOUDY    70  64  83 NW6       30.08S
PINE BLUFF     CLOUDY    70  67  90 N3        30.07S
MONTICELLO     CLOUDY    70  67  90 CALM      30.06S


...NORTH MISSISSIPPI...

CITY           SKY/WX    TMP DP  RH WIND       PRES   REMARKS
TUPELO         CLOUDY    74  63  68 CALM      30.06S
OLIVE BRANCH   PTCLDY    73  63  68 CALM      30.07S
CLARKSDALE     CLOUDY    75  68  78 CALM      30.06S
CORINTH        CLOUDY    72  64  78 CALM      30.07S
GRENADA        CLOUDY    70  64  83 CALM      30.06S
GREENWOOD      CLOUDY    73  67  81 E3        30.05F
COLUMBUS       CLOUDY    72  65  77 N1        30.05F
STARKVILLE     FAIR      70  63  78 CALM      30.06S
GOLDEN TRIANGL CLOUDY    72  61  68 MISG      30.06S


...SOUTHEAST MISSOURI...

CITY           SKY/WX    TMP DP  RH WIND       PRES   REMARKS
WEST PLAINS    CLOUDY    67  65  93 W3        30.09F
POPLAR BLUFF   CLOUDY    72  64  76 CALM      30.05S
CAPE GIRARDEAU CLOUDY    67  63  87 CALM      30.05S


...NORTHWEST ALABAMA...

CITY           SKY/WX    TMP DP  RH WIND       PRES   REMARKS
MUSCLE SHOALS  CLOUDY    74  60  61 CALM      30.08R


...MIDDLE TENNESSEE...

CITY           SKY/WX    TMP DP  RH WIND       PRES   REMARKS
NASHVILLE      MOCLDY    72  56  57 CALM      30.08R
CLARKSVILLE    MOCLDY    69  58  67 CALM      30.07S
DICKSON        MOCLDY    68  57  68 CALM      30.09R
COLUMBIA       CLEAR     72  64  78 CALM      30.07S
LEWISBURG      MOCLDY    69  62  78 CALM      30.07S


...WESTERN KENTUCKY...

CITY           SKY/WX    TMP DP  RH WIND       PRES   REMARKS
PADUCAH        MOCLDY    69  62  78 S3        30.05S
FORT CAMPBELL  MOCLDY    73  55  53 NW6       30.07S


...CENTRAL ARKANSAS...

CITY           SKY/WX    TMP DP  RH WIND       PRES   REMARKS
LITTLE ROCK    LGT RAIN  70  63  78 CALM      30.07F


SKY/WX REPORTED AS FAIR MEANS FEW OR NO CLOUDS BELOW
12 THOUSAND FEET.




USA.gov is the U.S. government's official web portal to all federal, state and local government web resources and services.